[[{"header":{"parameterUnit":"m.s-1","parameterCategory":1,"la1":30.2991,"la2":30.254,"lo1":-89.0895,"lo2":-89.0444,"dy":0.0017,"dx":0.0017,"nx":28,"ny":28,"refTime":"2024-08-06T09:00:00:Z","depth":0,"parameterNumber":2,"parameterNumberName":"U-component_of_WINDS"},"data":[0,0,0,0,0,0,0,0,0,0,0,0,0,0,0,0,0,0,0,0,0,0,0,0,0,0,0,0,0,0,0,0,0,0,0,0,0,0,0,0,0,0,0,0,0,0,0,0,0,0,0,0,0,0,0,0,0,0,2.137,2.137,0,2.1376,2.1377,2.1377,2.1268,2.1265,2.1262,2.126,2.1271,2.1274,2.1277,0,0,0,0,0,0,0,0,0,0,0,0,0,2.1267,2.1269,2.137,2.137,2.137,2.1376,2.1377,2.1377,2.1269,2.1265,2.1262,2.1258,2.127,2.1274,2.1277,0,0,0,0,0,0,0,0,0,0,0,0,0,2.1297,2.127,2.137,2.1317,2.1312,2.1376,2.1377,2.1377,2.127,2.1265,2.1261,2.1257,2.1269,2.1273,2.1278,2.1395,0,0,2.1292,2.1294,0,0,0,0,0,0,0,0,2.1295,2.13,2.1324,2.132,2.1315,2.1317,2.1344,2.1383,2.1271,2.1286,2.126,2.1254,2.129,2.1293,2.1304,2.1395,2.1396,2.1292,2.1295,2.1297,2.1298,0,0,0,0,0,0,0,2.1293,2.13,2.1372,2.1325,2.1319,2.1294,2.1293,2.1351,2.1313,2.1284,2.1276,2.1278,2.1287,2.13,2.1303,2.1396,2.1292,2.1296,2.1299,2.1301,2.1585,2.159,0,0,0,0,0,0,2.1298,2.1299,2.1372,2.1373,2.1294,2.1299,2.1298,2.1321,2.1312,2.1306,2.1282,2.1273,2.1294,2.1298,2.1303,2.1442,2.1297,2.1301,2.1304,2.158,2.1586,2.1591,0,0,0,0,0,0,2.1296,2.1305,2.1372,2.1333,2.134,2.1306,2.1332,2.1323,2.1336,2.131,2.1303,2.1302,2.1291,2.1297,2.1373,2.144,2.1303,2.1308,2.1575,2.1582,2.1589,2.1718,0,0,0,0,0,0,2.1293,2.1305,2.1349,2.1335,2.1342,2.1441,2.1336,2.1327,2.1344,2.1332,2.1327,2.1322,2.1288,2.1367,2.1378,2.1444,2.1311,2.1569,2.1578,2.1586,2.1708,2.1729,2.1747,0,0,0,0,0,2.129,2.1385,2.1351,2.1361,2.1396,2.1445,2.1449,2.1406,2.135,2.1394,2.1377,2.1322,2.143,2.1375,2.1387,2.1456,2.1564,2.1575,2.1586,2.1699,2.1725,2.1746,0,0,0,0,0,0,2.1409,2.1383,2.1345,2.1438,2.1444,2.1426,2.1481,2.1435,2.1458,2.1447,2.1393,2.1393,2.1479,2.1474,2.1413,2.1569,2.1488,2.1501,2.157,2.1594,2.1613,2.1614,2.1315,0,0,0,0,0,2.1446,2.1487,2.1461,2.1547,2.1551,2.1516,2.1535,2.1502,2.1507,2.1509,2.1498,2.1506,2.1542,2.1567,2.1598,2.1705,2.1704,2.1758,2.1778,2.1794,2.1808,2.1866,2.1891,2.1627,2.1627,2.1626,0,0,2.1523,2.1514,2.1543,2.157,2.1571,2.1617,2.1519,2.157,2.1604,2.1517,2.1589,2.1581,2.1587,2.1679,2.1719,2.1678,2.188,2.1808,2.1821,2.1826,2.188,2.1905,2.1927,2.1634,2.1633,2.1632,0,0,2.1688,2.1683,2.1755,2.1757,2.1759,2.1735,2.1752,2.174,2.1732,2.1802,2.1738,2.1778,2.184,2.1847,2.1859,2.2025,2.1977,2.2036,2.2141,2.2198,2.2219,2.2237,2.23,2.2323,2.2049,2.205,2.205,0,2.1785,2.1849,2.1798,2.1854,2.1869,2.179,2.1863,2.1868,2.1881,2.1894,2.1846,2.1923,2.1921,2.2016,2.2056,2.2067,2.2087,2.2039,2.222,2.2238,2.2254,2.2313,2.2336,2.2057,2.2056,2.2056,2.2055,0,2.1969,2.2015,2.2072,2.2086,2.2106,2.217,2.213,2.2157,2.2121,2.2102,2.2176,2.217,2.22,2.2219,2.2184,2.2309,2.2283,2.2229,2.2146,2.2288,2.2343,2.2364,2.2068,2.2065,2.2063,2.2061,0,0,2.2213,2.2195,2.2218,2.2223,2.2219,2.2254,2.2315,2.2342,2.2368,2.2379,2.2431,2.2484,2.2434,2.2447,2.2413,2.2463,2.2599,2.2402,2.2401,2.2442,2.2739,2.2783,2.281,2.2564,2.2568,2.2572,2.2739,0,2.2376,2.2478,2.2433,2.2541,2.2584,2.2509,2.2562,2.2567,2.255,2.2585,2.2566,2.2606,2.2535,2.2543,2.2588,2.2573,2.2658,2.2559,2.2616,2.2618,2.2621,2.2838,2.2885,2.3044,2.276,2.2764,2.2766,0,2.258,2.2599,2.2711,2.2699,2.2716,2.2765,2.2787,2.282,2.2823,2.2807,2.2822,2.2776,2.2837,2.2752,2.2836,2.277,2.2789,2.2785,2.279,2.2797,2.2704,2.2855,2.3093,2.3119,2.2799,2.2796,2.2794,0,2.2751,2.2804,2.2878,2.2884,2.2872,2.2909,2.2905,2.2904,2.2924,2.2943,2.2955,2.2982,2.2998,2.302,2.2983,2.2924,2.3074,2.2985,2.3065,2.3067,2.3104,2.3103,2.3353,2.311,2.311,2.3109,2.3109,0,2.294,2.3013,2.2955,2.3001,2.3081,2.3028,2.3108,2.3097,2.3096,2.314,2.3075,2.3119,2.3065,2.3103,2.3074,2.315,2.3157,2.3148,2.314,2.3156,2.3158,2.3172,2.3162,2.3115,2.3114,2.3113,2.3112,0,2.3147,2.311,2.3187,2.3168,2.3165,2.3225,2.321,2.3253,2.323,2.3287,2.3297,2.3263,2.3304,2.3268,2.3308,2.3289,2.3391,2.3365,2.3391,2.3385,2.3469,2.3463,2.374,2.3775,2.3506,2.3509,2.3511,0,2.3273,2.3326,2.3313,2.3337,2.3337,2.3377,2.3396,2.3346,2.3369,2.3377,2.342,2.3455,2.3481,2.3552,2.3532,2.3563,2.354,2.3634,2.3544,2.3559,2.3546,2.3545,2.3552,2.3654,2.3658,2.366,2.3662,0,2.35,2.3479,2.3509,2.3533,2.3557,2.3574,2.3585,2.3609,2.3557,2.3587,2.3628,2.3648,2.3688,2.3726,2.375,2.3748,2.3699,2.369,2.3711,2.373,2.3744,2.3742,2.3445,2.3685,2.3683,2.3681,2.368,2.3679,2.3673,2.3718,2.3716,2.3751,2.3754,2.3766,2.3806,2.3788,2.3821,2.3849,2.3817,2.3868,2.387,2.3897,2.3901,2.3941,2.3902,2.3931,2.394,2.3949,2.3963,2.3734,2.3945,2.3944,2.3943,2.3943,2.3942,0,2.3901,2.3895,2.3927,2.3945,2.3974,2.392,2.393,2.3959,2.4004,2.4009,2.4035,2.4084,2.4119,2.4101,2.4132,2.4168,2.4147,2.4179,2.4178,2.4179,2.3994,2.3975,2.4196,2.4196,2.4196,2.4196,2.4196,2.4196,2.4023,2.4097,2.4076,2.4151,2.4145,2.4193,2.4204,2.4216,2.422,2.4276,2.4305,2.4291,2.4288,2.4318,2.4349,2.4343,2.436,2.4401,2.4388,2.4217,2.4192,2.4168,2.415,2.4404,2.4404,2.4569,2.4571,2.4572]},{"header":{"parameterUnit":"m.s-1","parameterCategory":1,"la1":30.2991,"la2":30.254,"lo1":-89.0895,"lo2":-89.0444,"dy":0.0017,"dx":0.0017,"nx":28,"ny":28,"refTime":"2024-08-06T09:00:00:Z","depth":0,"parameterNumber":3,"parameterNumberName":"V-component_of_WINDS"},"data":[0,0,0,0,0,0,0,0,0,0,0,0,0,0,0,0,0,0,0,0,0,0,0,0,0,0,0,0,0,0,0,0,0,0,0,0,0,0,0,0,0,0,0,0,0,0,0,0,0,0,0,0,0,0,0,0,0,0,-0.4424,-0.4425,0,-0.4444,-0.4444,-0.4444,-0.4481,-0.4482,-0.4482,-0.4483,-0.4501,-0.4501,-0.4501,0,0,0,0,0,0,0,0,0,0,0,0,0,-0.4419,-0.4419,-0.4424,-0.4425,-0.4425,-0.4443,-0.4444,-0.4444,-0.4481,-0.4482,-0.4483,-0.4483,-0.4502,-0.4501,-0.4501,0,0,0,0,0,0,0,0,0,0,0,0,0,-0.4428,-0.4419,-0.4424,-0.4446,-0.4448,-0.4443,-0.4444,-0.4444,-0.4481,-0.4482,-0.4483,-0.4484,-0.4502,-0.4501,-0.4501,-0.4477,0,0,-0.45,-0.45,0,0,0,0,0,0,0,0,-0.4427,-0.4428,-0.4442,-0.4444,-0.4446,-0.4461,-0.4449,-0.4455,-0.448,-0.4468,-0.4483,-0.4484,-0.4487,-0.4488,-0.4489,-0.4478,-0.4479,-0.45,-0.45,-0.45,-0.45,0,0,0,0,0,0,0,-0.4426,-0.4427,-0.4432,-0.4442,-0.4445,-0.4454,-0.4456,-0.445,-0.4471,-0.4469,-0.4472,-0.4474,-0.4488,-0.4489,-0.449,-0.4479,-0.45,-0.45,-0.45,-0.45,-0.445,-0.4449,0,0,0,0,0,0,-0.4423,-0.4426,-0.4431,-0.4433,-0.4439,-0.4453,-0.4456,-0.4455,-0.4471,-0.4475,-0.4473,-0.4475,-0.4489,-0.449,-0.4491,-0.4464,-0.45,-0.45,-0.4499,-0.4451,-0.4449,-0.4448,0,0,0,0,0,0,-0.4423,-0.4423,-0.4431,-0.443,-0.4432,-0.4452,-0.4451,-0.4455,-0.4456,-0.4474,-0.4478,-0.447,-0.449,-0.4491,-0.448,-0.4465,-0.4499,-0.4499,-0.4452,-0.445,-0.4449,-0.441,0,0,0,0,0,0,-0.4422,-0.4423,-0.4414,-0.443,-0.4432,-0.442,-0.445,-0.4455,-0.4456,-0.4459,-0.4472,-0.4476,-0.4491,-0.4481,-0.448,-0.4465,-0.4499,-0.4454,-0.4451,-0.4449,-0.4412,-0.4407,-0.4402,0,0,0,0,0,-0.4422,-0.4402,-0.4414,-0.4414,-0.4422,-0.4419,-0.442,-0.4439,-0.4454,-0.4445,-0.4457,-0.4475,-0.4467,-0.4479,-0.4479,-0.4464,-0.4455,-0.4452,-0.445,-0.4415,-0.4408,-0.4402,0,0,0,0,0,0,-0.4384,-0.4405,-0.4417,-0.4402,-0.4409,-0.4425,-0.4415,-0.4431,-0.4433,-0.4436,-0.4459,-0.4462,-0.4448,-0.4455,-0.4468,-0.4441,-0.4464,-0.4461,-0.4437,-0.4431,-0.4426,-0.4424,-0.4499,0,0,0,0,0,-0.4373,-0.437,-0.4389,-0.4373,-0.4376,-0.4395,-0.4395,-0.4408,-0.4416,-0.4419,-0.443,-0.4436,-0.4435,-0.4433,-0.4433,-0.4414,-0.4417,-0.4403,-0.4398,-0.4394,-0.4391,-0.438,-0.4374,-0.444,-0.444,-0.444,0,0,-0.4352,-0.4363,-0.436,-0.4366,-0.4373,-0.4368,-0.4397,-0.4391,-0.4388,-0.4418,-0.4408,-0.4416,-0.4425,-0.441,-0.4404,-0.4415,-0.4373,-0.439,-0.4387,-0.4386,-0.4377,-0.4371,-0.4365,-0.4438,-0.4438,-0.4438,0,0,-0.4311,-0.432,-0.4308,-0.4314,-0.4324,-0.4336,-0.4333,-0.4348,-0.4355,-0.4346,-0.4368,-0.4364,-0.4362,-0.4367,-0.4369,-0.433,-0.4347,-0.433,-0.4302,-0.4292,-0.4287,-0.4282,-0.4267,-0.4262,-0.4327,-0.4327,-0.4327,0,-0.4283,-0.4278,-0.4299,-0.4292,-0.4294,-0.4321,-0.4309,-0.4314,-0.4323,-0.4323,-0.4336,-0.4334,-0.4341,-0.4327,-0.4318,-0.4319,-0.4316,-0.4328,-0.4286,-0.4281,-0.4277,-0.4264,-0.4258,-0.4324,-0.4325,-0.4325,-0.4325,0,-0.4243,-0.4239,-0.4228,-0.4237,-0.4237,-0.4228,-0.4247,-0.4245,-0.4259,-0.427,-0.426,-0.4271,-0.4273,-0.4271,-0.4284,-0.4259,-0.4265,-0.4282,-0.4304,-0.4269,-0.4256,-0.4251,-0.4321,-0.4322,-0.4323,-0.4323,0,0,-0.4178,-0.4198,-0.4194,-0.4198,-0.4211,-0.4208,-0.42,-0.4202,-0.42,-0.4205,-0.4198,-0.4196,-0.4211,-0.4213,-0.4228,-0.4219,-0.4186,-0.4236,-0.4237,-0.4226,-0.4158,-0.4145,-0.4139,-0.4198,-0.4197,-0.4196,-0.4157,0,-0.4139,-0.4126,-0.4145,-0.4127,-0.4123,-0.4149,-0.4141,-0.4148,-0.4159,-0.4157,-0.4168,-0.4166,-0.4186,-0.4188,-0.418,-0.4192,-0.4173,-0.4195,-0.4191,-0.419,-0.4187,-0.4132,-0.4119,-0.4081,-0.4152,-0.4152,-0.4151,0,-0.4092,-0.4095,-0.4077,-0.4091,-0.4091,-0.4083,-0.4087,-0.4085,-0.4094,-0.4102,-0.4104,-0.4122,-0.4114,-0.4136,-0.4125,-0.414,-0.4139,-0.4145,-0.4144,-0.4143,-0.4168,-0.413,-0.407,-0.4064,-0.4144,-0.4144,-0.4145,0,-0.4045,-0.4045,-0.4035,-0.4037,-0.4054,-0.4048,-0.4054,-0.4064,-0.4064,-0.4068,-0.4068,-0.407,-0.4071,-0.4072,-0.4089,-0.4104,-0.4076,-0.41,-0.4082,-0.4081,-0.4074,-0.4074,-0.4012,-0.4075,-0.4075,-0.4075,-0.4075,0,-0.3999,-0.3987,-0.4014,-0.4007,-0.3994,-0.4016,-0.4002,-0.4011,-0.4019,-0.4014,-0.4037,-0.4032,-0.4055,-0.4052,-0.4066,-0.4054,-0.4055,-0.4061,-0.4064,-0.4058,-0.4057,-0.4057,-0.406,-0.4074,-0.4074,-0.4074,-0.4074,0,-0.3945,-0.3962,-0.3952,-0.3968,-0.3972,-0.3962,-0.3976,-0.397,-0.3982,-0.3975,-0.3975,-0.3994,-0.3991,-0.4009,-0.401,-0.4019,-0.4001,-0.4009,-0.3998,-0.4,-0.3981,-0.3982,-0.3917,-0.3909,-0.3977,-0.3976,-0.3975,0,-0.3914,-0.3905,-0.3921,-0.3919,-0.3925,-0.3922,-0.3923,-0.3944,-0.3943,-0.3952,-0.3945,-0.3945,-0.3946,-0.3941,-0.3954,-0.3955,-0.3963,-0.394,-0.3964,-0.3958,-0.3962,-0.3962,-0.3961,-0.3935,-0.3934,-0.3934,-0.3933,0,-0.3857,-0.3867,-0.3867,-0.387,-0.387,-0.3873,-0.3878,-0.3875,-0.3898,-0.3896,-0.3894,-0.3895,-0.3896,-0.3896,-0.3899,-0.3906,-0.3923,-0.3926,-0.3921,-0.3915,-0.3908,-0.3911,-0.3984,-0.3927,-0.3928,-0.3928,-0.3928,-0.3929,-0.3813,-0.3807,-0.3816,-0.3816,-0.3822,-0.3825,-0.3821,-0.3832,-0.3831,-0.3834,-0.3847,-0.3842,-0.3851,-0.3857,-0.3862,-0.3859,-0.387,-0.3864,-0.3862,-0.386,-0.3856,-0.3909,-0.386,-0.386,-0.386,-0.386,-0.386,0,-0.3757,-0.3765,-0.3764,-0.377,-0.3769,-0.3787,-0.3793,-0.3791,-0.3787,-0.3793,-0.3794,-0.3792,-0.3791,-0.3805,-0.3806,-0.38,-0.3808,-0.38,-0.38,-0.3801,-0.3847,-0.385,-0.3794,-0.3794,-0.3794,-0.3794,-0.3794,-0.3794,-0.3728,-0.3717,-0.3728,-0.372,-0.3728,-0.3724,-0.3726,-0.373,-0.3735,-0.3731,-0.3731,-0.374,-0.3749,-0.3751,-0.3751,-0.3755,-0.3754,-0.3743,-0.3749,-0.3792,-0.3798,-0.3804,-0.3807,-0.3743,-0.3743,-0.3704,-0.3704,-0.3703]}]]